St. Petersburg Airport, FL

10:01 AM EDT on July 21, 2017 (GMT -0400)
Saint Petersburg-Clearwater International

Weather History for KPIE - July, 2013

Change the Weather History Date:

Monday, July 1, 2013

  Actual Average Record
Temperature  
Mean Temperature 77 °F -  
Max Temperature 81 °F 90 °F 97 °F (1973)
Min Temperature 73 °F 76 °F 71 °F (1955)
Cooling Degree Days 12    
Growing Degree Days 27 (Base 50)    
Moisture  
Dew Point 73 °F    
Average Humidity 90    
Maximum Humidity 100    
Minimum Humidity 79    
Precipitation  
Precipitation 2.24 in - - ()
Sea Level Pressure  
Sea Level Pressure 29.94 in    
Wind  
Wind Speed 10 mph (South)    
Max Wind Speed 20 mph    
Max Gust Speed 25 mph    
Visibility 8 miles    
Events Fog , Rain , Thunderstorm    
Averages and records for this station are not official NWS values.
T = Trace of Precipitation, MM = Missing Value Source: NWS Daily Summary

Daily Weather History Graph

Daily Weather History Graph

Search for Another Location

Airport or City:

Trip Planner

Search our weather history database for the weather conditions in past years. The results will help you decide how hot, cold, wet, or windy it might be!

Date:

Astronomy

Jul. 01, 2013 Rise Set
Actual Time 6:38 AM EDT 8:31 PM EDT
Civil Twilight 6:11 AM EDT 8:57 PM EDT
Nautical Twilight 5:39 AM EDT 9:29 PM EDT
Astronomical Twilight 5:05 AM EDT 10:03 PM EDT
Moon 1:48 AM EDT (7/1) 3:01 PM EDT (7/1)
Length of Visible Light 14h 45m
Length of Day
13h 52m
Waning Crescent, 35% of the Moon is Illuminated
Jul 1
Waning Crescent
Jul 8
New
Jul 15
First Quarter
Jul 22
Full
Jul 29
Last Quarter

Hourly Weather History & Observations

Time (EDT) Temp. Heat Index Dew Point Humidity Pressure Visibility Wind Dir Wind Speed Gust Speed Precip Events Conditions
12:21 AM 75.2 °F - 73.4 °F 94% 29.90 in 10.0 mi South 12.7 mph - 0.06 in Rain , Thunderstorm Light Rain
12:53 AM 75.9 °F - 73.0 °F 91% 29.88 in 10.0 mi South 3.5 mph - 0.16 in Rain , Thunderstorm Light Rain
1:53 AM 75.9 °F - 73.9 °F 94% 29.90 in 10.0 mi SSW 8.1 mph - 0.00 in Thunderstorm Thunderstorm
2:04 AM 75.2 °F - 73.4 °F 94% 29.89 in 10.0 mi South 8.1 mph - N/A Thunderstorm Thunderstorm
2:11 AM 75.2 °F - 73.4 °F 94% 29.89 in 10.0 mi South 10.4 mph - 0.00 in Rain , Thunderstorm Light Rain
2:22 AM 75.2 °F - 71.6 °F 89% 29.89 in 10.0 mi South 9.2 mph - 0.00 in Rain , Thunderstorm Light Thunderstorms and Rain
2:53 AM 75.0 °F - 73.0 °F 94% 29.88 in 10.0 mi Calm Calm - 0.00 in Thunderstorm Partly Cloudy
3:28 AM 73.4 °F - 69.8 °F 88% 29.87 in 10.0 mi SSW 4.6 mph - 0.01 in   Scattered Clouds
3:53 AM 73.0 °F - 71.1 °F 93% 29.86 in 10.0 mi South 4.6 mph - 0.01 in   Partly Cloudy
4:53 AM 75.9 °F - 70.0 °F 82% 29.83 in 10.0 mi South 16.1 mph 21.9 mph 0.01 in Rain Light Rain
5:53 AM 75.0 °F - 71.1 °F 87% 29.85 in 10.0 mi SSW 11.5 mph - 0.03 in Rain Rain
6:53 AM 77.0 °F - 75.0 °F 94% 29.88 in 10.0 mi SSE 10.4 mph - 0.01 in   Clear
7:38 AM 78.8 °F - 75.2 °F 89% 29.89 in 10.0 mi South 15.0 mph - N/A   Partly Cloudy
7:53 AM 78.1 °F - 75.9 °F 93% 29.90 in 10.0 mi South 13.8 mph - N/A   Partly Cloudy
8:53 AM 79.0 °F - 75.0 °F 88% 29.91 in 10.0 mi SSE 12.7 mph - N/A   Mostly Cloudy
9:53 AM 81.0 °F 86.7 °F 75.0 °F 82% 29.91 in 10.0 mi South 16.1 mph 23.0 mph N/A   Partly Cloudy
10:51 AM 80.6 °F 85.4 °F 73.4 °F 79% 29.93 in 10.0 mi SSW 13.8 mph - N/A Thunderstorm Partly Cloudy
10:53 AM 81.0 °F 86.2 °F 73.9 °F 79% 29.93 in 10.0 mi South 13.8 mph - N/A Thunderstorm Partly Cloudy
11:06 AM 80.6 °F 85.4 °F 73.4 °F 79% 29.94 in 10.0 mi SSW 19.6 mph 25.3 mph N/A   Mostly Cloudy
11:53 AM 78.1 °F - 73.9 °F 87% 29.96 in 10.0 mi South 12.7 mph - 0.02 in Rain Light Rain
12:53 PM 79.0 °F - 73.9 °F 84% 29.96 in 10.0 mi SSW 11.5 mph - 0.02 in   Scattered Clouds
1:29 PM 78.8 °F - 73.4 °F 83% 29.95 in 9.0 mi South 12.7 mph - 0.01 in Rain Light Rain
1:46 PM 78.8 °F - 73.4 °F 83% 29.94 in 10.0 mi South 12.7 mph - 0.01 in Rain Light Rain
1:53 PM 79.0 °F - 73.9 °F 84% 29.94 in 10.0 mi South 13.8 mph - 0.01 in Rain Light Rain
2:53 PM 78.1 °F - 75.0 °F 90% 29.94 in 9.0 mi South 12.7 mph - 0.01 in Rain Light Rain
3:53 PM 79.0 °F - 75.0 °F 88% 29.94 in 10.0 mi South 13.8 mph - 0.01 in   Overcast
4:53 PM 77.0 °F - 73.0 °F 88% 29.94 in 9.0 mi South 12.7 mph - 0.02 in Rain Light Rain
5:53 PM 78.1 °F - 73.9 °F 87% 29.96 in 10.0 mi South 10.4 mph - 0.02 in Rain Light Rain
6:10 PM 78.8 °F - 73.4 °F 83% 29.96 in 4.0 mi South 10.4 mph - 0.03 in Rain Rain
6:14 PM 77.0 °F - 73.4 °F 89% 29.95 in 1.8 mi SSW 9.2 mph - 0.07 in Rain Heavy Rain
6:37 PM 75.2 °F - 73.4 °F 94% 29.97 in 0.5 mi SSW 17.3 mph 23.0 mph 0.45 in Fog , Rain Heavy Rain
6:44 PM 73.4 °F - 71.6 °F 94% 29.97 in 0.5 mi South 11.5 mph 24.2 mph 0.77 in Fog , Rain Heavy Rain
6:53 PM 73.9 °F - 72.0 °F 93% 29.97 in 0.5 mi SSW 9.2 mph - 1.09 in Fog , Rain Heavy Rain
7:02 PM 73.4 °F - 73.4 °F 100% 29.98 in 1.8 mi South 10.4 mph - 0.05 in Rain Heavy Rain
7:10 PM 73.4 °F - 71.6 °F 94% 29.98 in 0.8 mi SSW 17.3 mph 24.2 mph 0.21 in Rain Heavy Rain
7:23 PM 73.4 °F - 71.6 °F 94% 29.98 in 1.0 mi South 8.1 mph - 0.47 in Rain Heavy Rain
7:38 PM 73.4 °F - 71.6 °F 94% 29.98 in 6.0 mi South 6.9 mph - 0.51 in Rain Light Rain
7:53 PM 73.9 °F - 72.0 °F 93% 29.97 in 10.0 mi South 6.9 mph - 0.52 in Rain Light Rain
8:53 PM 73.9 °F - 72.0 °F 93% 29.97 in 10.0 mi SE 5.8 mph - 0.01 in   Mostly Cloudy
9:53 PM 75.0 °F - 73.0 °F 94% 29.99 in 10.0 mi SE 6.9 mph - 0.01 in Rain Light Rain
10:53 PM 75.0 °F - 73.0 °F 94% 29.99 in 10.0 mi ESE 5.8 mph - 0.03 in Rain Light Rain
11:30 PM 75.2 °F - 73.4 °F 94% 29.99 in 3.0 mi ESE 10.4 mph - 0.06 in Rain Heavy Rain
11:40 PM 73.4 °F - 73.4 °F 100% 29.99 in 4.0 mi East 10.4 mph - 0.10 in Rain Rain
11:50 PM 73.4 °F - 71.6 °F 94% 30.00 in 3.0 mi ESE 10.4 mph - 0.17 in Rain Heavy Rain
11:53 PM 73.9 °F - 72.0 °F 93% 30.00 in 2.5 mi ESE 11.5 mph - 0.25 in Rain Heavy Rain
11:58 PM 73.4 °F - 73.4 °F 100% 29.99 in 1.5 mi East 9.2 mph - 0.17 in Rain Heavy Rain